#�ϑ�����,���ϕ���,���ϕ���,�ő啗��,�ő啗����������,�ő�u�ԕ���,�ő�u�ԕ�����������
#(�N����),(m/s)   ,(16����),(m/s)   ,(16����)        ,(m/s)       ,(16����)            
2012/10/17 0:01,2.3,3,2.3,3,3.7,3
2012/10/17 0:02,2.3,3,2.3,3,3.5,3
2012/10/17 0:03,2.3,3,2.3,3,3.6,2
2012/10/17 0:04,2.3,3,2.3,3,3.9,3
2012/10/17 0:05,2.4,3,2.4,3,3.3,3
2012/10/17 0:06,2.5,3,2.5,3,3.7,2
2012/10/17 0:07,2.5,3,2.5,3,3.5,3
2012/10/17 0:08,2.4,3,2.5,3,3.9,3
2012/10/17 0:09,2.4,3,2.4,3,3.3,2
2012/10/17 0:10,2.4,2,2.4,3,2.7,2
2012/10/17 0:11,2.4,2,2.4,3,3.5,1
2012/10/17 0:12,2.4,2,2.4,3,3.7,3
2012/10/17 0:13,2.3,3,2.3,3,2.1,4
2012/10/17 0:14,2.2,3,2.3,3,2.5,3
2012/10/17 0:15,2.2,2,2.2,3,3.9,3
2012/10/17 0:16,2.1,3,2.2,3,2.6,3
2012/10/17 0:17,2,3,2.1,3,2.7,3
2012/10/17 0:18,1.9,2,2,3,2.4,3
2012/10/17 0:19,1.9,2,1.9,3,3.7,1
2012/10/17 0:20,2,3,2.1,2,5.8,4
2012/10/17 0:21,2,3,2.1,2,3.2,3
2012/10/17 0:22,2,3,2,2,3.5,3
2012/10/17 0:23,2.2,3,2.2,3,6.1,3
2012/10/17 0:24,2.3,3,2.3,3,5.8,2
2012/10/17 0:25,2.3,3,2.3,3,3.7,3
2012/10/17 0:26,2.3,3,2.3,3,3,3
2012/10/17 0:27,2.3,3,2.3,3,3.8,3
2012/10/17 0:28,2.3,3,2.3,3,3.7,3
2012/10/17 0:29,2.3,3,2.4,3,3.7,4
2012/10/17 0:30,2.2,3,2.3,3,3.1,3
2012/10/17 0:31,2.1,3,2.2,3,3.2,3
2012/10/17 0:32,2.2,3,2.2,3,3.5,3
2012/10/17 0:33,2.2,3,2.2,3,4.7,4
2012/10/17 0:34,2.2,3,2.2,3,3.9,3
2012/10/17 0:35,2.3,3,2.3,3,6.5,4
2012/10/17 0:36,2.3,3,2.3,3,4.2,4
2012/10/17 0:37,2.5,3,2.5,3,3.6,3
2012/10/17 0:38,2.5,3,2.5,3,4.1,2
2012/10/17 0:39,2.6,3,2.6,3,3.3,4
2012/10/17 0:40,2.6,3,2.6,3,4.2,4
2012/10/17 0:41,2.7,3,2.7,3,3.1,3
2012/10/17 0:42,2.5,3,2.6,3,2.2,4
2012/10/17 0:43,2.4,3,2.5,3,2.5,3
2012/10/17 0:44,2.2,3,2.4,3,1.9,4
2012/10/17 0:45,2,3,2.2,3,1.5,4
2012/10/17 0:46,1.9,3,2,3,1.9,4
2012/10/17 0:47,1.7,3,1.9,3,1.5,5
2012/10/17 0:48,1.6,3,1.7,3,3,3
2012/10/17 0:49,1.6,3,1.6,3,3.2,3
2012/10/17 0:50,1.5,3,1.6,3,4.4,3
2012/10/17 0:51,1.6,3,1.6,3,4.4,3
2012/10/17 0:52,1.7,3,1.7,3,4.2,3
2012/10/17 0:53,1.8,3,1.8,3,3.5,3
2012/10/17 0:54,1.9,3,1.9,3,3.1,3
2012/10/17 0:55,2,3,2,3,3.5,3
2012/10/17 0:56,2.2,3,2.2,3,3.9,3
2012/10/17 0:57,2.4,3,2.4,3,3.9,3
2012/10/17 0:58,2.5,3,2.5,3,3.7,5
2012/10/17 0:59,2.5,3,2.5,3,3.3,2
2012/10/17 1:00,2.5,3,2.6,3,3.6,2
2012/10/17 1:01,2.4,3,2.5,3,2.7,3
2012/10/17 1:02,2.3,3,2.4,3,2.7,3
2012/10/17 1:03,2.3,3,2.3,3,3.1,3
2012/10/17 1:04,2.4,3,2.4,3,4.2,2
2012/10/17 1:05,2.4,3,2.4,3,5.4,2
2012/10/17 1:06,2.4,3,2.4,3,5,3
2012/10/17 1:07,2.3,2,2.4,3,3.5,2
2012/10/17 1:08,2.3,2,2.3,3,3,3
2012/10/17 1:09,2.3,3,2.3,3,3.7,3
2012/10/17 1:10,2.4,3,2.4,3,3.2,3
2012/10/17 1:11,2.4,3,2.4,3,3.3,3
2012/10/17 1:12,2.4,3,2.4,3,2.4,2
2012/10/17 1:13,2.4,3,2.4,3,2.4,4
2012/10/17 1:14,2.3,3,2.4,3,2.6,2
2012/10/17 1:15,2.2,3,2.3,3,3.7,3
2012/10/17 1:16,2.1,3,2.2,3,3.5,3
2012/10/17 1:17,2.2,3,2.2,3,3.9,4
2012/10/17 1:18,2.2,3,2.2,3,3.3,3
2012/10/17 1:19,2.1,3,2.2,3,2.9,3
2012/10/17 1:20,2.1,3,2.1,3,4.9,2
2012/10/17 1:21,2.3,3,2.3,3,5.1,3
2012/10/17 1:22,2.5,3,2.5,3,5.1,3
2012/10/17 1:23,2.5,3,2.5,3,3.9,4
2012/10/17 1:24,2.6,3,2.6,3,3.3,4
2012/10/17 1:25,2.6,3,2.6,3,3.2,3
2012/10/17 1:26,2.6,3,2.6,3,3.5,3
2012/10/17 1:27,2.5,3,2.6,3,3.7,3
2012/10/17 1:28,2.5,3,2.5,3,3.2,3
2012/10/17 1:29,2.6,3,2.6,3,3.3,3
2012/10/17 1:30,2.7,3,2.7,3,4.5,3
2012/10/17 1:31,2.5,3,2.7,3,3.9,4
2012/10/17 1:32,2.4,3,2.5,3,2.9,3
2012/10/17 1:33,2.4,3,2.4,3,3.9,4
2012/10/17 1:34,2.4,3,2.5,3,3.7,2
2012/10/17 1:35,2.4,3,2.4,3,2.6,4
2012/10/17 1:36,2.5,3,2.5,3,4.4,3
2012/10/17 1:37,2.6,3,2.6,3,4.3,3
2012/10/17 1:38,2.6,4,2.6,3,3.6,4
2012/10/17 1:39,2.5,4,2.6,3,3,6
2012/10/17 1:40,2.3,4,2.5,3,2.5,2
2012/10/17 1:41,2.3,4,2.3,3,2.7,4
2012/10/17 1:42,2.3,4,2.3,3,4.7,3
2012/10/17 1:43,2.4,3,2.4,3,4.8,3
2012/10/17 1:44,2.5,3,2.5,3,3.5,3
2012/10/17 1:45,2.6,3,2.6,3,3.8,3
2012/10/17 1:46,2.5,3,2.6,3,3.9,4
2012/10/17 1:47,2.6,3,2.6,3,4.7,2
2012/10/17 1:48,2.6,3,2.6,4,4.2,3
2012/10/17 1:49,2.6,3,2.6,3,3.9,3
2012/10/17 1:50,2.7,3,2.7,3,4.2,3
2012/10/17 1:51,2.8,3,2.8,3,3.5,1
2012/10/17 1:52,2.8,3,2.8,3,3.6,4
2012/10/17 1:53,2.8,3,2.8,3,4.2,4
2012/10/17 1:54,2.8,3,2.8,3,3.8,3
2012/10/17 1:55,2.7,3,2.8,3,3.6,3
2012/10/17 1:56,2.6,3,2.7,3,3.5,3
2012/10/17 1:57,2.5,3,2.6,3,2.4,4
2012/10/17 1:58,2.6,3,2.6,3,4.8,4
2012/10/17 1:59,2.7,3,2.7,3,5.4,4
2012/10/17 2:00,2.6,3,2.7,3,3.5,4
2012/10/17 2:01,2.6,3,2.6,3,2.6,3
2012/10/17 2:02,2.6,3,2.6,3,3.7,3
2012/10/17 2:03,2.4,3,2.6,3,3.3,3
2012/10/17 2:04,2.3,3,2.4,3,2.1,1
2012/10/17 2:05,2.2,3,2.2,3,3.9,3
2012/10/17 2:06,2.3,3,2.3,3,3.8,3
2012/10/17 2:07,2.4,3,2.4,3,3.2,3
2012/10/17 2:08,2.3,3,2.4,3,3.2,1
2012/10/17 2:09,2.1,3,2.3,3,3.2,1
2012/10/17 2:10,2.2,3,2.2,3,4.4,3
2012/10/17 2:11,2.3,3,2.3,3,3.9,3
2012/10/17 2:12,2.2,3,2.3,3,2.7,3
2012/10/17 2:13,2.2,3,2.2,3,2.2,2
2012/10/17 2:14,2.3,3,2.3,3,3,4
2012/10/17 2:15,2.3,3,2.3,3,4.1,3
2012/10/17 2:16,2.3,3,2.3,3,5.1,3
2012/10/17 2:17,2.5,3,2.5,3,4.7,3
2012/10/17 2:18,2.4,3,2.5,3,3.7,3
2012/10/17 2:19,2.4,3,2.4,3,3.7,4
2012/10/17 2:20,2.5,3,2.5,3,4.9,3
2012/10/17 2:21,2.5,3,2.5,3,3.7,3
2012/10/17 2:22,2.5,3,2.6,3,3.5,4
2012/10/17 2:23,2.6,3,2.6,3,4.3,3
2012/10/17 2:24,2.6,3,2.6,3,2.7,3
2012/10/17 2:25,2.6,3,2.6,3,3,3
2012/10/17 2:26,2.3,3,2.6,3,2.2,4
2012/10/17 2:27,2.2,3,2.3,3,3.8,4
2012/10/17 2:28,2.1,3,2.1,3,3.1,2
2012/10/17 2:29,2.2,3,2.2,3,4.2,1
2012/10/17 2:30,2,3,2.2,3,3.7,3
2012/10/17 2:31,1.9,3,2,3,3.2,3
2012/10/17 2:32,1.9,2,1.9,3,2.5,3
2012/10/17 2:33,1.9,3,1.9,3,3.5,2
2012/10/17 2:34,1.9,3,1.9,3,4.8,3
2012/10/17 2:35,2.1,2,2.1,3,4.8,3
2012/10/17 2:36,2.3,3,2.3,3,4.2,3
2012/10/17 2:37,2.3,2,2.3,3,3.8,2
2012/10/17 2:38,2.5,3,2.5,3,4.8,3
2012/10/17 2:39,2.7,3,2.7,3,4.9,3
2012/10/17 2:40,2.9,3,2.9,3,6.4,3
2012/10/17 2:41,3,3,3,3,5.1,4
2012/10/17 2:42,3.1,3,3.1,3,3.8,4
2012/10/17 2:43,3.1,3,3.1,3,3.9,4
2012/10/17 2:44,3.1,3,3.1,3,3.6,3
2012/10/17 2:45,3,3,3.1,3,4.1,2
2012/10/17 2:46,2.9,3,3,3,4.1,4
2012/10/17 2:47,2.9,3,2.9,3,3.3,5
2012/10/17 2:48,2.7,3,2.8,3,2.9,4
2012/10/17 2:49,2.6,3,2.7,3,3.3,2
2012/10/17 2:50,2.5,4,2.6,3,3.8,4
2012/10/17 2:51,2.4,4,2.5,3,3.6,5
2012/10/17 2:52,2.5,3,2.5,3,5.1,3
2012/10/17 2:53,2.6,3,2.6,3,5.2,4
2012/10/17 2:54,2.5,4,2.6,3,3.9,4
2012/10/17 2:55,2.5,4,2.5,3,2.7,4
2012/10/17 2:56,2.5,4,2.5,3,4.1,3
2012/10/17 2:57,2.6,4,2.6,3,3.7,3
2012/10/17 2:58,2.6,3,2.6,3,2.9,3
2012/10/17 2:59,2.6,3,2.6,3,3.3,3
2012/10/17 3:00,2.7,3,2.7,3,4.4,3
2012/10/17 3:01,2.7,3,2.7,3,4.5,4
2012/10/17 3:02,2.7,3,2.7,3,4.9,3
2012/10/17 3:03,2.6,3,2.7,3,4.9,3
2012/10/17 3:04,2.7,3,2.7,3,4.2,4
2012/10/17 3:05,2.8,3,2.8,3,3,3
2012/10/17 3:06,2.7,3,2.8,3,3.7,3
2012/10/17 3:07,2.6,3,2.7,3,3.7,5
2012/10/17 3:08,2.6,3,2.7,3,3,4
2012/10/17 3:09,2.6,3,2.6,3,3.1,4
2012/10/17 3:10,2.4,3,2.6,3,3.3,2
2012/10/17 3:11,2.4,3,2.4,3,3.9,2
2012/10/17 3:12,2.3,3,2.4,3,3.3,3
2012/10/17 3:13,2.4,3,2.4,3,4.4,2
2012/10/17 3:14,2.3,3,2.4,3,3.9,3
2012/10/17 3:15,2.4,3,2.4,3,4.9,3
2012/10/17 3:16,2.5,3,2.5,3,3.9,3
2012/10/17 3:17,2.4,3,2.4,3,3.8,2
2012/10/17 3:18,2.5,2,2.5,3,4.1,2
2012/10/17 3:19,2.6,2,2.6,3,3.8,2
2012/10/17 3:20,2.7,3,2.7,2,3.5,3
2012/10/17 3:21,2.7,3,2.7,2,4.7,5
2012/10/17 3:22,2.7,3,2.7,2,3.5,4
2012/10/17 3:23,2.5,3,2.6,2,2.2,3
2012/10/17 3:24,2.4,3,2.5,2,2.7,2
2012/10/17 3:25,2.3,3,2.4,2,3.2,3
2012/10/17 3:26,2.3,3,2.3,2,3,2
2012/10/17 3:27,2.2,3,2.3,2,2.5,3
2012/10/17 3:28,2.1,3,2.2,2,4.3,3
2012/10/17 3:29,2.1,3,2.1,2,3.9,2
2012/10/17 3:30,2,3,2.1,3,3.2,2
2012/10/17 3:31,1.9,3,2,3,3,3
2012/10/17 3:32,2,3,2,3,3,2
2012/10/17 3:33,1.9,2,2,3,3.7,3
2012/10/17 3:34,2.1,3,2.1,3,4.7,3
2012/10/17 3:35,2.1,3,2.1,3,4.5,3
2012/10/17 3:36,2.1,3,2.2,3,3.1,2
2012/10/17 3:37,2.3,3,2.3,3,4.1,4
2012/10/17 3:38,2.4,3,2.4,3,5.2,4
2012/10/17 3:39,2.4,3,2.4,3,2.7,3
2012/10/17 3:40,2.3,3,2.4,3,2.5,2
2012/10/17 3:41,2.3,3,2.3,3,2.2,3
2012/10/17 3:42,2.2,3,2.3,3,2.5,3
2012/10/17 3:43,2.2,3,2.3,3,2,2
2012/10/17 3:44,2,3,2.2,3,2,2
2012/10/17 3:45,2,3,2,3,2.5,3
2012/10/17 3:46,2,3,2,3,3,5
2012/10/17 3:47,2,3,2,3,4.4,4
2012/10/17 3:48,1.9,3,1.9,3,3.9,4
2012/10/17 3:49,1.9,3,1.9,3,3.8,3
2012/10/17 3:50,2.1,3,2.1,3,3.8,3
2012/10/17 3:51,2.2,3,2.2,3,3.7,3
2012/10/17 3:52,2.3,3,2.3,3,3.6,3
2012/10/17 3:53,2.4,3,2.4,3,3.8,4
2012/10/17 3:54,2.5,3,2.5,3,3.3,3
2012/10/17 3:55,2.5,3,2.5,3,3.6,3
2012/10/17 3:56,2.6,3,2.6,3,4.1,4
2012/10/17 3:57,2.5,3,2.6,3,3.2,5
2012/10/17 3:58,2.4,3,2.5,3,3.2,5
2012/10/17 3:59,2.4,3,2.4,3,2.7,5
2012/10/17 4:00,2.2,3,2.3,3,2.1,3
2012/10/17 4:01,2.1,3,2.2,3,1.9,2
2012/10/17 4:02,2.1,3,2.1,3,4.9,3
2012/10/17 4:03,2.1,3,2.1,3,3.7,3
2012/10/17 4:04,2.2,3,2.2,3,3.8,5
2012/10/17 4:05,2.1,3,2.2,3,2.6,4
2012/10/17 4:06,2,3,2.1,3,3.5,3
2012/10/17 4:07,2,3,2.1,3,3.8,3
2012/10/17 4:08,2.1,3,2.1,3,3.2,2
2012/10/17 4:09,2.1,3,2.1,3,3.8,1
2012/10/17 4:10,2.2,3,2.2,3,3.8,3
2012/10/17 4:11,2.3,3,2.3,3,3.9,4
2012/10/17 4:12,2.3,3,2.4,3,3.3,3
2012/10/17 4:13,2.2,3,2.3,3,2.1,3
2012/10/17 4:14,2.1,3,2.2,3,2.4,5
2012/10/17 4:15,2.1,3,2.1,3,3.1,5
2012/10/17 4:16,2.1,3,2.1,3,3.2,3
2012/10/17 4:17,2,3,2.1,3,2.5,5
2012/10/17 4:18,1.9,3,2,3,3.5,3
2012/10/17 4:19,2,4,2,3,4.2,3
2012/10/17 4:20,2.1,4,2.1,3,3.3,3
2012/10/17 4:21,2,4,2.1,3,3.6,3
2012/10/17 4:22,2,4,2,3,2.7,4
2012/10/17 4:23,1.9,4,2,3,2.7,3
2012/10/17 4:24,1.9,3,2,3,3.3,4
2012/10/17 4:25,2,3,2,3,3.3,3
2012/10/17 4:26,2,3,2,3,3.9,3
2012/10/17 4:27,2.2,3,2.2,3,5.1,3
2012/10/17 4:28,2.4,3,2.4,3,5.5,3
2012/10/17 4:29,2.4,3,2.4,3,4.4,3
2012/10/17 4:30,2.4,3,2.5,3,4.7,2
2012/10/17 4:31,2.3,3,2.4,3,3.2,2
2012/10/17 4:32,2.5,3,2.5,3,4.5,3
2012/10/17 4:33,2.6,3,2.6,3,3.7,4
2012/10/17 4:34,2.7,3,2.7,3,3.1,3
2012/10/17 4:35,2.7,3,2.7,3,3.6,3
2012/10/17 4:36,2.7,3,2.7,3,2.5,3
2012/10/17 4:37,2.5,3,2.6,3,2,3
2012/10/17 4:38,2.3,3,2.4,3,2.4,2
2012/10/17 4:39,2.2,3,2.3,3,3,4
2012/10/17 4:40,2.2,3,2.2,3,4.7,3
2012/10/17 4:41,2.4,3,2.4,3,3.9,3
2012/10/17 4:42,2.2,3,2.4,3,2.6,3
2012/10/17 4:43,2.1,3,2.2,3,3.6,3
2012/10/17 4:44,2.2,3,2.2,3,3.9,2
2012/10/17 4:45,2.2,3,2.2,3,4.3,2
2012/10/17 4:46,2.2,3,2.2,3,2.4,2
2012/10/17 4:47,2.2,3,2.2,3,2.5,3
2012/10/17 4:48,2.2,3,2.2,3,2.9,3
2012/10/17 4:49,2.3,3,2.3,3,4.8,4
2012/10/17 4:50,2.3,3,2.4,3,4.2,3
2012/10/17 4:51,2.3,3,2.3,3,3.9,3
2012/10/17 4:52,2.4,3,2.4,3,4.2,3
2012/10/17 4:53,2.5,3,2.5,3,3.9,3
2012/10/17 4:54,2.5,3,2.5,3,3.2,3
2012/10/17 4:55,2.5,3,2.5,3,4.3,3
2012/10/17 4:56,2.5,3,2.5,3,3.5,2
2012/10/17 4:57,2.6,3,2.6,3,3.2,3
2012/10/17 4:58,2.7,3,2.7,3,2.7,3
2012/10/17 4:59,2.5,3,2.7,3,3,4
2012/10/17 5:00,2.4,3,2.5,3,2.7,3
2012/10/17 5:01,2.3,3,2.4,3,2.4,4
2012/10/17 5:02,2.2,3,2.3,3,3.8,4
2012/10/17 5:03,2.1,3,2.2,3,3.9,3
2012/10/17 5:04,2.2,3,2.2,3,3.8,4
2012/10/17 5:05,2.3,3,2.3,3,5.7,4
2012/10/17 5:06,2.3,3,2.4,3,4.2,3
2012/10/17 5:07,2.4,3,2.4,3,4.3,2
2012/10/17 5:08,2.4,3,2.4,3,3.6,4
2012/10/17 5:09,2.5,3,2.5,3,4.3,3
2012/10/17 5:10,2.6,3,2.6,3,4.1,3
2012/10/17 5:11,2.7,3,2.7,3,4.4,2
2012/10/17 5:12,2.8,3,2.8,3,4.2,3
2012/10/17 5:13,2.8,3,2.8,3,3.7,3
2012/10/17 5:14,2.7,3,2.8,3,3.2,3
2012/10/17 5:15,2.5,3,2.7,3,3.5,2
2012/10/17 5:16,2.4,3,2.5,3,2.4,16
2012/10/17 5:17,2.4,3,2.4,3,4.2,3
2012/10/17 5:18,2.4,3,2.4,3,3.5,3
2012/10/17 5:19,2.3,2,2.3,3,3.9,3
2012/10/17 5:20,2.4,2,2.4,3,4.2,3
2012/10/17 5:21,2.5,2,2.5,3,4.4,1
2012/10/17 5:22,2.4,2,2.5,3,3.9,3
2012/10/17 5:23,2.5,2,2.5,3,4.3,3
2012/10/17 5:24,2.6,2,2.6,3,4.4,3
2012/10/17 5:25,2.7,3,2.7,2,5.4,4
2012/10/17 5:26,2.9,2,2.9,2,5.1,3
2012/10/17 5:27,3,2,3,3,5.2,3
2012/10/17 5:28,3,3,3,3,4.4,3
2012/10/17 5:29,3,3,3,3,4.9,2
2012/10/17 5:30,3.1,3,3.1,3,4.4,3
2012/10/17 5:31,2.9,3,3.1,3,3.9,3
2012/10/17 5:32,3,3,3,3,3.6,2
2012/10/17 5:33,2.9,2,3,3,4.9,2
2012/10/17 5:34,2.9,3,2.9,3,4.7,2
2012/10/17 5:35,2.8,3,3,3,3.5,3
2012/10/17 5:36,2.8,3,2.9,3,4.9,3
2012/10/17 5:37,2.9,3,2.9,3,5.2,3
2012/10/17 5:38,2.9,2,2.9,3,3.7,3
2012/10/17 5:39,2.8,2,2.9,3,4.7,2
2012/10/17 5:40,2.6,2,2.8,3,2.5,1
2012/10/17 5:41,2.6,2,2.6,3,4.3,3
2012/10/17 5:42,2.7,2,2.7,3,4.4,2
2012/10/17 5:43,2.7,3,2.7,3,4.7,3
2012/10/17 5:44,2.8,3,2.8,3,4.2,4
2012/10/17 5:45,2.9,3,2.9,3,5,2
2012/10/17 5:46,2.8,3,2.9,3,3.9,3
2012/10/17 5:47,2.7,3,2.8,3,4.4,3
2012/10/17 5:48,2.8,3,2.8,2,4.5,3
2012/10/17 5:49,2.9,3,2.9,3,5.2,3
2012/10/17 5:50,3,3,3,3,3.7,3
2012/10/17 5:51,2.9,3,3,3,2,3
2012/10/17 5:52,2.9,3,2.9,3,5.1,3
2012/10/17 5:53,2.9,3,3,3,5.1,3
2012/10/17 5:54,2.9,3,2.9,3,3.8,4
2012/10/17 5:55,2.8,3,2.9,3,4.8,3
2012/10/17 5:56,2.8,3,2.8,3,4.4,4
2012/10/17 5:57,2.8,3,2.9,3,4.3,2
2012/10/17 5:58,2.9,3,2.9,3,5.4,3
2012/10/17 5:59,2.7,3,2.9,3,4.1,4
2012/10/17 6:00,2.7,3,2.7,3,3.7,3
2012/10/17 6:01,2.9,3,2.9,3,4.1,4
2012/10/17 6:02,2.8,3,2.9,3,3.3,2
2012/10/17 6:03,2.7,3,2.8,3,3.1,2
2012/10/17 6:04,2.6,3,2.7,3,3.7,3
2012/10/17 6:05,2.6,3,2.6,3,4.5,4
2012/10/17 6:06,2.5,3,2.5,3,3.7,2
2012/10/17 6:07,2.5,3,2.6,3,4.1,3
2012/10/17 6:08,2.4,3,2.5,3,4.2,3
2012/10/17 6:09,2.4,3,2.5,3,4.1,3
2012/10/17 6:10,2.5,3,2.5,3,4.7,3
2012/10/17 6:11,2.5,2,2.5,3,4.2,3
2012/10/17 6:12,2.6,2,2.6,3,4.9,3
2012/10/17 6:13,2.7,3,2.7,3,3.8,3
2012/10/17 6:14,2.8,3,2.8,3,5.4,3
2012/10/17 6:15,2.9,3,3,3,5.2,2
2012/10/17 6:16,3.1,3,3.1,3,6.2,2
2012/10/17 6:17,3.1,3,3.1,3,4.3,3
2012/10/17 6:18,3,2,3.1,3,4.7,4
2012/10/17 6:19,3.2,3,3.2,3,6,4
2012/10/17 6:20,3.2,3,3.3,3,4.5,3
2012/10/17 6:21,3.3,3,3.3,3,4.7,3
2012/10/17 6:22,3.3,3,3.3,3,5,3
2012/10/17 6:23,3.2,3,3.3,3,3.7,4
2012/10/17 6:24,3.1,3,3.2,3,3.6,3
2012/10/17 6:25,3,3,3.1,3,4.2,3
2012/10/17 6:26,3,3,3,3,5.8,3
2012/10/17 6:27,3.1,3,3.1,3,4.9,4
2012/10/17 6:28,3.1,3,3.2,3,4.4,3
2012/10/17 6:29,3,3,3.1,3,4.2,3
2012/10/17 6:30,3,3,3,3,5.4,2
2012/10/17 6:31,2.9,3,3,3,4.5,3
2012/10/17 6:32,2.9,3,2.9,3,5.6,2
2012/10/17 6:33,3,3,3,3,5.8,3
2012/10/17 6:34,3.1,3,3.1,3,4.8,2
2012/10/17 6:35,3.3,3,3.3,3,4.8,3
2012/10/17 6:36,3.3,3,3.3,3,5,3
2012/10/17 6:37,3.1,3,3.3,3,4.5,3
2012/10/17 6:38,3.1,3,3.1,3,2.9,4
2012/10/17 6:39,3,3,3.1,3,2.9,4
2012/10/17 6:40,2.9,3,3,3,6.4,3
2012/10/17 6:41,2.9,3,2.9,3,4.7,4
2012/10/17 6:42,2.8,3,2.9,3,3.9,4
2012/10/17 6:43,2.8,3,2.8,3,4.3,4
2012/10/17 6:44,2.7,3,2.8,3,3.7,4
2012/10/17 6:45,2.5,3,2.7,3,2.2,3
2012/10/17 6:46,2.5,3,2.5,3,4.2,3
2012/10/17 6:47,2.4,3,2.5,3,3.6,3
2012/10/17 6:48,2.5,3,2.5,3,4.7,3
2012/10/17 6:49,2.7,3,2.7,3,4.2,4
2012/10/17 6:50,2.7,3,2.7,3,3.6,3
2012/10/17 6:51,2.7,3,2.7,3,3.1,3
2012/10/17 6:52,2.6,3,2.7,3,3,3
2012/10/17 6:53,2.6,3,2.6,3,4.9,2
2012/10/17 6:54,2.6,3,2.6,3,5,4
2012/10/17 6:55,2.6,3,2.6,3,3.5,3
2012/10/17 6:56,2.6,3,2.6,3,3.9,3
2012/10/17 6:57,2.8,3,2.8,3,6,3
2012/10/17 6:58,2.7,3,2.8,3,4.3,4
2012/10/17 6:59,2.7,3,2.7,3,5.1,3
2012/10/17 7:00,2.8,3,2.8,3,5.6,3
2012/10/17 7:01,2.8,3,2.8,3,3.9,3
2012/10/17 7:02,2.9,3,2.9,3,5.1,3
2012/10/17 7:03,3,3,3,3,5.5,3
2012/10/17 7:04,3.1,3,3.1,3,5.2,6
2012/10/17 7:05,3.2,3,3.2,3,5.4,4
2012/10/17 7:06,3.2,3,3.3,3,4.2,3
2012/10/17 7:07,3,3,3.2,3,2.6,3
2012/10/17 7:08,2.9,3,3,3,3,3
2012/10/17 7:09,2.9,3,2.9,3,3.6,4
2012/10/17 7:10,2.7,3,2.9,3,3.8,2
2012/10/17 7:11,2.9,3,2.9,3,5.1,3
2012/10/17 7:12,3.1,3,3.1,3,6.8,3
2012/10/17 7:13,3.2,3,3.2,3,6.7,4
2012/10/17 7:14,3.2,3,3.2,3,6.1,3
2012/10/17 7:15,3.2,3,3.2,3,4.4,3
2012/10/17 7:16,3.1,3,3.2,3,3.9,3
2012/10/17 7:17,3.2,3,3.2,3,4.4,4
2012/10/17 7:18,3.2,3,3.2,3,3.1,4
2012/10/17 7:19,3.2,3,3.2,3,3.5,3
2012/10/17 7:20,3.2,3,3.2,3,4.5,4
2012/10/17 7:21,3.2,3,3.2,3,4.5,4
2012/10/17 7:22,2.9,3,3.2,3,4.3,3
2012/10/17 7:23,2.8,3,2.9,3,5.2,4
2012/10/17 7:24,2.7,3,2.8,3,3.8,4
2012/10/17 7:25,2.6,3,2.7,3,3.8,3
2012/10/17 7:26,2.7,3,2.7,3,4.7,4
2012/10/17 7:27,2.7,3,2.7,3,4.2,3
2012/10/17 7:28,2.7,3,2.7,3,2.9,3
2012/10/17 7:29,2.7,3,2.7,3,4.1,4
2012/10/17 7:30,2.7,3,2.7,3,3.1,3
2012/10/17 7:31,2.6,4,2.7,3,3.3,4
2012/10/17 7:32,2.5,4,2.6,3,2.9,2
2012/10/17 7:33,2.5,3,2.5,3,4.4,3
2012/10/17 7:34,2.4,4,2.5,3,4.1,3
2012/10/17 7:35,2.5,4,2.5,3,5,5
2012/10/17 7:36,2.6,4,2.6,3,4.8,5
2012/10/17 7:37,2.6,4,2.6,3,4.1,4
2012/10/17 7:38,2.7,4,2.7,3,3.7,2
2012/10/17 7:39,2.7,4,2.7,3,3.2,3
2012/10/17 7:40,2.6,4,2.7,3,2.4,3
2012/10/17 7:41,2.6,4,2.6,4,3.5,4
2012/10/17 7:42,2.7,4,2.7,4,4.2,3
2012/10/17 7:43,2.7,4,2.8,4,3.9,3
2012/10/17 7:44,2.8,4,2.8,4,4.8,3
2012/10/17 7:45,2.8,4,2.9,4,5.4,5
2012/10/17 7:46,2.6,4,2.8,4,4.4,5
2012/10/17 7:47,2.7,4,2.7,4,4.5,5
2012/10/17 7:48,2.6,4,2.7,4,3.2,4
2012/10/17 7:49,2.5,4,2.6,4,3,2
2012/10/17 7:50,2.5,4,2.5,4,3.2,4
2012/10/17 7:51,2.5,4,2.6,4,2.7,3
2012/10/17 7:52,2.4,4,2.5,4,3.6,3
2012/10/17 7:53,2.3,3,2.4,4,3.1,3
2012/10/17 7:54,2.2,3,2.3,4,3.8,2
2012/10/17 7:55,2.2,3,2.2,4,4.5,4
2012/10/17 7:56,2.2,3,2.3,4,4.1,4
2012/10/17 7:57,2.3,3,2.3,4,5.5,3
2012/10/17 7:58,2.3,3,2.3,4,4.7,3
2012/10/17 7:59,2.4,3,2.4,4,4.2,2
2012/10/17 8:00,2.3,3,2.4,4,2.4,4
2012/10/17 8:01,2.5,3,2.5,4,4.3,2
2012/10/17 8:02,2.5,3,2.5,3,4.4,3
2012/10/17 8:03,2.5,3,2.6,3,3.3,3
2012/10/17 8:04,2.5,3,2.5,3,2.5,4
2012/10/17 8:05,2.5,4,2.5,3,3.8,6
2012/10/17 8:06,2.4,4,2.5,3,3.3,5
2012/10/17 8:07,2.2,4,2.4,3,3,5
2012/10/17 8:08,2.1,4,2.2,3,2.2,3
2012/10/17 8:09,2.1,4,2.1,3,2.6,5
2012/10/17 8:10,2.1,4,2.1,3,2.2,5
2012/10/17 8:11,2.1,4,2.1,3,3.7,5
2012/10/17 8:12,2,4,2.1,3,3.2,4
2012/10/17 8:13,2,4,2,3,2.5,3
2012/10/17 8:14,2,4,2,3,2.7,3
2012/10/17 8:15,1.8,4,2,4,2,4
2012/10/17 8:16,1.8,4,1.8,4,2.4,4
2012/10/17 8:17,1.8,3,1.8,4,3.1,3
2012/10/17 8:18,1.7,3,1.8,4,2.5,3
2012/10/17 8:19,1.7,3,1.7,4,2,4
2012/10/17 8:20,1.6,3,1.7,4,2.1,1
2012/10/17 8:21,1.5,2,1.6,4,2.6,4
2012/10/17 8:22,1.4,2,1.5,4,2.1,4
2012/10/17 8:23,1.4,2,1.4,4,2.4,2
2012/10/17 8:24,1.3,2,1.4,4,1.8,2
2012/10/17 8:25,1.3,2,1.3,4,2,3
2012/10/17 8:26,1.2,2,1.3,4,2,3
2012/10/17 8:27,1.2,2,1.2,3,2.4,3
2012/10/17 8:28,1.2,2,1.2,3,2.2,2
2012/10/17 8:29,1.2,2,1.2,3,2.7,2
2012/10/17 8:30,1.1,2,1.2,3,1.9,3
2012/10/17 8:31,1.1,2,1.2,2,2,2
2012/10/17 8:32,1.2,2,1.2,2,2.4,1
2012/10/17 8:33,1.2,2,1.2,2,4.1,3
2012/10/17 8:34,1.4,2,1.4,2,3.7,3
2012/10/17 8:35,1.5,2,1.5,2,3.6,4
2012/10/17 8:36,1.7,2,1.7,2,4.1,3
2012/10/17 8:37,1.9,2,1.9,2,4.8,3
2012/10/17 8:38,2.1,2,2.1,2,4.2,3
2012/10/17 8:39,2.2,2,2.2,2,3.6,4
2012/10/17 8:40,2.3,3,2.3,3,4.3,4
2012/10/17 8:41,2.4,3,2.4,3,4.5,3
2012/10/17 8:42,2.6,3,2.6,3,4.2,3
2012/10/17 8:43,2.7,3,2.7,3,3.9,3
2012/10/17 8:44,2.7,3,2.7,3,4.4,3
2012/10/17 8:45,2.7,3,2.8,3,5.6,2
2012/10/17 8:46,2.8,3,2.8,3,4.4,2
2012/10/17 8:47,2.6,3,2.8,3,3.8,3
2012/10/17 8:48,2.6,3,2.6,3,4.1,2
2012/10/17 8:49,2.7,3,2.7,3,4.2,3
2012/10/17 8:50,2.7,3,2.7,3,3.9,3
2012/10/17 8:51,2.8,3,2.8,3,3.8,2
2012/10/17 8:52,2.7,3,2.8,3,3.7,4
2012/10/17 8:53,2.7,3,2.7,3,3.8,1
2012/10/17 8:54,2.6,3,2.7,3,3.8,3
2012/10/17 8:55,2.6,3,2.6,3,4.7,3
2012/10/17 8:56,2.4,2,2.6,3,3.2,2
2012/10/17 8:57,2.5,2,2.5,3,4.5,2
2012/10/17 8:58,2.5,2,2.5,3,4.5,3
2012/10/17 8:59,2.4,2,2.5,3,4.4,3
2012/10/17 9:00,2.4,2,2.4,3,4.3,3
2012/10/17 9:01,2.3,2,2.4,3,3.9,3
2012/10/17 9:02,2.4,2,2.4,3,4.5,3
2012/10/17 9:03,2.4,2,2.4,3,3.6,2
2012/10/17 9:04,2.4,2,2.5,3,4.3,3
2012/10/17 9:05,2.4,2,2.4,2,4.4,2
2012/10/17 9:06,2.5,2,2.5,2,3.8,2
2012/10/17 9:07,2.5,2,2.5,2,4.4,2
2012/10/17 9:08,2.4,2,2.5,2,4.2,1
2012/10/17 9:09,2.5,2,2.5,2,5,1
2012/10/17 9:10,2.5,2,2.6,2,4.8,2
2012/10/17 9:11,2.5,2,2.6,2,4.5,1
2012/10/17 9:12,2.5,2,2.5,2,4.7,1
2012/10/17 9:13,2.6,2,2.7,2,5.1,1
2012/10/17 9:14,2.6,2,2.6,2,4.9,2
2012/10/17 9:15,2.7,2,2.7,2,5.7,1
2012/10/17 9:16,2.8,2,2.8,2,5.7,16
2012/10/17 9:17,2.9,1,2.9,2,4.2,1
2012/10/17 9:18,3,1,3,2,5.7,1
2012/10/17 9:19,3.1,1,3.1,1,6,2
2012/10/17 9:20,3.2,1,3.2,1,4.8,1
2012/10/17 9:21,3.2,1,3.2,1,5,1
2012/10/17 9:22,3.2,1,3.2,1,5.1,2
2012/10/17 9:23,3.1,2,3.2,1,4.9,2
2012/10/17 9:24,3.1,2,3.2,1,5.2,3
2012/10/17 9:25,3.1,2,3.1,1,5,2
2012/10/17 9:26,3,2,3.1,1,4.7,3
2012/10/17 9:27,3.1,2,3.1,1,5.2,1
2012/10/17 9:28,3,2,3.1,1,5.1,2
2012/10/17 9:29,3,2,3,1,6.2,1
2012/10/17 9:30,3,2,3,1,5.7,2
2012/10/17 9:31,3,2,3,1,4.9,2
2012/10/17 9:32,3,2,3,1,4.8,2
2012/10/17 9:33,3,2,3,2,4.3,2
2012/10/17 9:34,3,2,3,2,6,2
2012/10/17 9:35,2.9,2,3,2,4.9,1
2012/10/17 9:36,3,2,3,2,6.4,3
2012/10/17 9:37,2.9,2,3,2,4.4,2
2012/10/17 9:38,2.9,2,2.9,2,5.6,2
2012/10/17 9:39,2.8,2,3,2,3.9,1
2012/10/17 9:40,2.8,2,2.8,2,4.5,2
2012/10/17 9:41,2.7,2,2.8,2,4.1,2
2012/10/17 9:42,2.7,2,2.7,2,3.9,3
2012/10/17 9:43,2.8,2,2.8,2,4.5,2
2012/10/17 9:44,2.8,2,2.9,2,4.3,2
2012/10/17 9:45,2.7,2,2.8,2,4.1,3
2012/10/17 9:46,2.6,2,2.8,2,3.5,1
2012/10/17 9:47,2.7,2,2.7,2,4.8,3
2012/10/17 9:48,2.6,2,2.7,2,4.8,3
2012/10/17 9:49,2.7,2,2.7,2,5.2,2
2012/10/17 9:50,2.8,2,2.8,2,5.4,2
2012/10/17 9:51,2.9,2,2.9,2,5.6,3
2012/10/17 9:52,3,2,3,2,4.3,3
2012/10/17 9:53,2.9,2,3,2,4.1,4
2012/10/17 9:54,2.8,2,2.9,2,3.3,3
2012/10/17 9:55,2.9,2,2.9,2,4.2,4
2012/10/17 9:56,3,2,3,2,4.5,3
2012/10/17 9:57,3,2,3.1,2,5.1,3
2012/10/17 9:58,3,2,3,2,4.2,3
2012/10/17 9:59,2.9,3,3,2,4.5,3
2012/10/17 10:00,2.8,3,2.8,2,4.3,3
2012/10/17 10:01,2.7,3,2.8,2,5,3
2012/10/17 10:02,2.7,3,2.8,2,5.2,3
2012/10/17 10:03,2.8,3,2.8,2,5.1,3
2012/10/17 10:04,2.9,3,2.9,2,4.2,3
2012/10/17 10:05,2.9,3,3,2,4.7,4
2012/10/17 10:06,2.7,2,2.9,2,2.1,2
2012/10/17 10:07,2.6,2,2.7,2,3.6,3
2012/10/17 10:08,2.7,3,2.7,2,4.2,4
2012/10/17 10:09,2.7,2,2.7,3,5.1,3
2012/10/17 10:10,2.8,3,2.8,3,5,3
2012/10/17 10:11,2.7,3,2.8,3,3.9,3
2012/10/17 10:12,2.7,3,2.7,3,4.1,3
2012/10/17 10:13,2.5,3,2.7,3,3.9,3
2012/10/17 10:14,2.6,3,2.6,3,5,3
2012/10/17 10:15,2.6,2,2.6,3,4.5,1
2012/10/17 10:16,2.7,2,2.7,2,4.1,2
2012/10/17 10:17,2.8,2,2.8,2,5.7,3
2012/10/17 10:18,2.8,3,2.8,2,4.5,3
2012/10/17 10:19,2.8,3,2.8,2,3.9,3
2012/10/17 10:20,2.8,3,2.8,3,4.3,3
2012/10/17 10:21,2.8,3,2.8,2,3.7,3
2012/10/17 10:22,2.8,3,2.8,2,4.5,2
2012/10/17 10:23,2.9,3,2.9,3,3.9,3
2012/10/17 10:24,2.8,3,2.9,3,3.7,2
2012/10/17 10:25,2.8,3,2.8,3,4.4,3
2012/10/17 10:26,2.8,3,2.9,3,3.3,2
2012/10/17 10:27,2.8,3,2.8,3,4.8,3
2012/10/17 10:28,2.9,3,2.9,3,5.4,3
2012/10/17 10:29,2.9,3,2.9,3,4.9,2
2012/10/17 10:30,2.9,3,2.9,3,4.4,3
2012/10/17 10:31,2.9,3,2.9,3,3.9,2
2012/10/17 10:32,2.8,3,2.8,3,4.1,2
2012/10/17 10:33,2.7,2,2.8,3,3.6,2
2012/10/17 10:34,2.8,2,2.8,3,4.8,2
2012/10/17 10:35,2.8,2,2.8,3,4.4,2
2012/10/17 10:36,2.9,2,2.9,3,4.4,2
2012/10/17 10:37,3,2,3,2,5.6,4
2012/10/17 10:38,3,2,3,2,5.1,3
2012/10/17 10:39,3,2,3,2,5,3
2012/10/17 10:40,3,2,3,2,4.2,3
2012/10/17 10:41,3,2,3,2,2.9,4
2012/10/17 10:42,2.9,2,3,2,3.9,3
2012/10/17 10:43,2.9,2,2.9,2,4.7,3
2012/10/17 10:44,2.9,2,2.9,2,4.1,2
2012/10/17 10:45,3,2,3,2,4.9,3
2012/10/17 10:46,3,2,3,2,5.2,3
2012/10/17 10:47,2.9,3,3,2,5.1,3
2012/10/17 10:48,3,3,3,2,5.5,2
2012/10/17 10:49,2.8,3,2.9,2,4.2,3
2012/10/17 10:50,2.8,2,2.8,2,4.1,3
2012/10/17 10:51,2.9,2,2.9,2,4.2,3
2012/10/17 10:52,2.9,3,2.9,2,4.1,3
2012/10/17 10:53,2.8,3,2.9,2,2.6,3
2012/10/17 10:54,2.8,3,2.8,2,3.1,3
2012/10/17 10:55,2.7,3,2.8,2,3.9,4
2012/10/17 10:56,2.7,3,2.7,2,3.8,4
2012/10/17 10:57,2.5,3,2.6,3,4.2,3
2012/10/17 10:58,2.5,3,2.5,3,4.1,4
2012/10/17 10:59,2.4,3,2.5,2,3.9,3
2012/10/17 11:00,2.4,3,2.4,2,3.1,2
2012/10/17 11:01,2.2,3,2.4,2,2.6,1
2012/10/17 11:02,2.3,3,2.3,3,4.9,3
2012/10/17 11:03,2.2,3,2.3,3,3.7,3
2012/10/17 11:04,2.2,2,2.2,3,3.6,3
2012/10/17 11:05,2.3,2,2.3,3,4.8,3
2012/10/17 11:06,2.3,2,2.3,3,5.4,3
2012/10/17 11:07,2.3,2,2.3,3,3.8,2
2012/10/17 11:08,2.2,2,2.3,3,3.8,2
2012/10/17 11:09,2.1,2,2.2,3,3.1,1
2012/10/17 11:10,2.1,2,2.2,3,3.5,5
2012/10/17 11:11,2.2,2,2.2,3,5,2
2012/10/17 11:12,2.3,2,2.4,2,5,2
2012/10/17 11:13,2.5,3,2.5,3,5.1,3
2012/10/17 11:14,2.5,3,2.5,3,3.1,4
2012/10/17 11:15,2.5,3,2.5,3,4.8,3
2012/10/17 11:16,2.6,3,2.6,3,4.4,3
2012/10/17 11:17,2.7,3,2.7,3,3.7,3
2012/10/17 11:18,2.7,3,2.7,3,3.6,3
2012/10/17 11:19,2.8,3,2.8,3,4.4,4
2012/10/17 11:20,2.9,3,2.9,3,3.9,4
2012/10/17 11:21,2.8,3,3,3,3.7,4
2012/10/17 11:22,2.7,3,2.8,3,3,3
2012/10/17 11:23,2.6,3,2.6,3,3.3,3
2012/10/17 11:24,2.6,3,2.6,3,3.7,4
2012/10/17 11:25,2.6,3,2.7,3,3.9,3
2012/10/17 11:26,2.4,3,2.6,3,3.6,3
2012/10/17 11:27,2.4,3,2.4,3,4.1,3
2012/10/17 11:28,2.4,3,2.4,3,4.4,3